Home   Weather   Bradenton   Past weeks

Flag for USA Past Weather in Bradenton, Florida, USA — Yesterday and Last 2 Weeks

63 °F


Feels Like: 63 °F
Forecast: 66 / 76 °F
Wind: 8 mph from Northeast

Location: Sarasota-Bradenton International Airport

Current Time: Oct 22, 2016 at 7:52:55 AM

Latest Report: Oct 22, 2016 at 6:53 AM

Visibility: 10 mi

Pressure: 29.95 "Hg

Humidity: 52%

Dew Point: 45 °F

Location of BradentonLocation

Past Weather in Bradenton — Graph


Bradenton Temperature Yesterday

Maximum temperature yesterday: 86 °F (at 1:53 PM)
Minimum temperature yesterday: 68 °F (at 6:53 AM)
Average temperature yesterday: 77 °F

High & Low Weather Summary for the Past Weeks

High91 °F (Oct 16, 3:53 PM)90% (Oct 9, 3:53 AM)30.16 "Hg (Oct 9, 3:53 AM)
Low63 °F (Oct 22, 5:53 AM)40% (Oct 10, 1:53 PM)29.62 "Hg (Oct 7, 7:53 AM)
Average79 °F68%29.97 "Hg
* Reported Oct 7 7:53 AM — Oct 22 6:53 AM, Bradenton, Weather by CustomWeather, © 2016

Note: Actual official high and low records may vary slightly from our data, if they occured in-between our weather recording intervals... More about our weather records


Bradenton Weather History for the Previous 24 Hours

Scroll right to see more
Time TempWeatherWind HumidityBarometerVisibility
6:53 AM
Sat, Oct 22
63 °FClear.8 mph52%29.95 "Hg10 mi
5:53 AM63 °FClear.6 mph58%29.93 "Hg10 mi
4:53 AM66 °FClear.3 mph52%29.91 "Hg10 mi
3:53 AM69 °FClear.8 mph45%29.90 "Hg10 mi
2:53 AM69 °FClear.7 mph53%29.90 "Hg10 mi
1:53 AM71 °FClear.5 mph59%29.89 "Hg10 mi
12:53 AM74 °FClear.7 mph57%29.88 "Hg10 mi
11:53 PM
Fri, Oct 21
74 °FClear.7 mph69%29.88 "Hg10 mi
10:53 PM73 °FClear.6 mph76%29.87 "Hg10 mi
9:53 PM75 °FClear.6 mph74%29.86 "Hg10 mi
8:53 PM77 °FPassing clouds.8 mph77%29.85 "Hg10 mi
7:53 PM78 °FClear.10 mph76%29.83 "Hg10 mi
6:53 PM79 °FSunny.15 mph72%29.81 "Hg10 mi
5:53 PM82 °FSunny.12 mph63%29.80 "Hg10 mi
4:53 PM85 °FScattered clouds.14 mph57%29.79 "Hg10 mi
3:53 PM83 °FPassing clouds.14 mph59%29.80 "Hg10 mi
2:53 PM86 °FSunny.17 mph55%29.81 "Hg10 mi
1:53 PM86 °FPassing clouds.16 mph51%29.83 "Hg10 mi
12:53 PM85 °FBroken clouds.13 mph55%29.84 "Hg10 mi
11:53 AM85 °FScattered clouds.8 mph57%29.86 "Hg10 mi
10:53 AM83 °FPassing clouds.9 mph59%29.87 "Hg10 mi
9:53 AM80 °FSunny.9 mph64%29.87 "Hg10 mi
8:53 AM75 °FSunny.No wind82%29.86 "Hg10 mi
7:53 AM68 °FSunny.No wind90%29.85 "Hg9 mi
Weather by CustomWeather, © 2016

See weather overviewHow to use our weather pages